User: anonymous   Login
Location: Vancouver
(49.2500°N, 123.1330°W)
Time: 11:24:24
(UTC-08:00)
Language:

JAS-1B - Orbit

View from above orbital plane
View from above orbital plane
View from above satellite
View from above satellite

Ground track
Ground track

The orbit data is extracted from the following two-line orbital elements,

1 20480U 90013C   14353.81533119  .00000001  00000-0  84448-4 0  9290
2 20480 099.0709 282.2362 0539454 293.5078 125.1752 12.83401004164949
Epoch (UTC): 19 December 2014 19:34:04
Eccentricity: 0.0539454
inclination: 99.0709°
perigee height: 912 km
apogee height: 1743 km
right ascension of ascending node: 282.2362°
argument of perigee: 293.5078°
revolutions per day: 12.83401004
mean anomaly at epoch: 125.1752°
orbit number at epoch: 16494

The dashed part of the orbit path shows where the satellite is in the earth's shadow,  

DLR